Terminal Aerodrome Forecast
Issued by NWS Cleveland, OH

Home | Current Version | Previous Version | Graphics & Text | Print | Product List | Glossary On
Versions: 1 2 3 4 5 6 7 8 9 10 11 12 13 14 15
010
FTUS41 KCLE 180445 AAA
TAFMFD
TAF AMD
KMFD 180445Z 1805/1824 22010KT P6SM SCT250 WS015/25040KT
     FM181100 22012KT P6SM SCT250
     FM181500 23012G20KT P6SM BKN200=

USA.gov is the U.S. government's official web portal to all federal, state and local government web resources and services.